星链-35118(STARLINK-35118)

导读

STARLINK-35118是美国SpaceX星链星座中的卫星,于2025年12月2日发射。星链项目旨在构建全球卫星互联网组网,为地面提供低延迟、高速率的宽带互联网服务。这颗卫星延续了星链批量部署的策略,进一步扩充星座规模,推进全球覆盖的进程,助力实现偏远地区网络覆盖、空中及海上联网等应用场景的落地。

Basic Information
目录编号:
66858
目录名称:
STARLINK-35118
国际标识:
2025-281L
轨道中心:
EARTH
卫星名称:
星链-35118
卫星全名:
星链-35118(STARLINK-35118)
卫星状态:
在轨 (已飞行283 天)
发射日期:
2025-12-02 UTC
国别 :
美国 (US)
星等 :
--
This satellite is enrolled in the Space Conjunction Data Service (SCDS) and the current flight risk assessment level is: High Risk
Orbit Information
数据来源 国际轨道数据
星历时间: 2026-09-11T15:36:15+0800
10小时前
查看轨道信息
半长轴: 6861.001km
偏心率: 0.0000686
轨道倾角: 43.003°
近地点辐角 249.215°
升交点赤经 15.249°
平近点角 110.862°
近地点: 482.393km
远地点: 483.335km
周期: 94.263分钟
每日圈数: 15.27642
Detailed Information
固有亮度:
5
最大亮度:
2.5
卫星平台:
Starlink V1.0
覆盖范围:
全球
运营商:
太空探索技术公司
运营商所在国:
美国
制造商(研发单位):
太空探索技术公司
制造商所在国:
美国
使用方式:
暂无
Satellite Introduction
Starlink 计划是 SpaceX 推出的全球卫星互联网项目,通过发射低轨道卫星,为全球尤其是偏远地区提供高速、低延迟的互联网服务。自 2019 年起,Starlink 已部署数千颗卫星,旨在缩小全球数字鸿沟,推动互联网普及。该项目还为军事、航空等行业提供通信支持,带来广泛经济效益。
2D Orbit Map
3D Orbit Map
Orbit Altitude Analysis Chart
Orbit Inclination Analysis Chart
Orbit Comprehensive Analysis Chart
View Comprehensive Chart
Conjunction Data List
Event ID Objects TCA Miss Dist (km) Collision Risk Probability Collision Risk Index (CRI) Action
CDM_260913-195606-212406-685821
2026-09-13T
19:56:03+0000
0.415 km
远距离
2.455592E-4 高风险 0.83
CDM_260913-045905-486506-685821
2026-09-13T
04:59:19+0000
0.901 km
远距离
2.879924E-5 中风险 0.64
CDM_260912-140605-813806-685821
2026-09-12T
14:06:38+0000
1.038 km
极远距离
1.809606E-5 中风险 0.6
CDM_260913-114905-557306-685821
2026-09-13T
11:49:10+0000
0.819 km
远距离
1.489966E-5 中风险 0.58
CDM_260912-230505-984106-685821
2026-09-12T
23:05:37+0000
1.032 km
极远距离
1.361264E-5 中风险 0.58
CDM_260912-160105-984106-685821
2026-09-12T
16:01:56+0000
1.116 km
极远距离
1.037511E-5 中风险 0.55
CDM_260912-171305-486506-685821
2026-09-12T
17:13:11+0000
1.219 km
极远距离
1.013597E-5 中风险 0.55
CDM_260912-140505-989506-685821
2026-09-12T
14:05:28+0000
1.250 km
极远距离
9.375396E-6 低风险 0.54
CDM_260913-015205-813806-685821
2026-09-13T
01:52:47+0000
1.286 km
极远距离
8.60757E-6 低风险 0.54
CDM_260914-011905-717606-685821
OBJECT L (57176)
2026-09-14T
01:19:17+0000
1.232 km
极远距离
8.589495E-6 低风险 0.54
Miss Distance Evolution Trend with All Objects
Collision Probability Evolution Trend with All Objects